[[{"header":{"parameterUnit":"m.s-1","parameterCategory":1,"la1":30.2991,"la2":30.254,"lo1":-89.0895,"lo2":-89.0444,"dy":0.0017,"dx":0.0017,"nx":28,"ny":28,"refTime":"2025-04-20T03:00:00:Z","depth":0,"parameterNumber":2,"parameterNumberName":"U-component_of_WINDS"},"data":[0,0,0,0,0,0,0,0,0,0,0,0,0,0,0,0,0,0,0,0,0,0,0,0,0,0,0,0,0,0,0,0,0,0,0,0,0,0,0,0,0,0,0,0,0,0,0,0,0,0,0,0,0,0,0,0,0,0,-3.1176,-3.1177,0,-3.1266,-3.1267,-3.1268,-3.1263,-3.1262,-3.126,-3.1259,-3.1351,-3.1354,-3.1358,0,0,0,0,0,0,0,0,0,0,0,0,0,-3.1003,-3.1006,-3.1176,-3.1177,-3.1178,-3.1265,-3.1267,-3.1268,-3.1263,-3.1262,-3.126,-3.1259,-3.135,-3.1354,-3.1358,0,0,0,0,0,0,0,0,0,0,0,0,0,-3.1084,-3.1007,-3.1176,-3.1186,-3.1188,-3.1265,-3.1267,-3.1268,-3.1264,-3.1262,-3.126,-3.1258,-3.1348,-3.1353,-3.1359,-3.1431,0,0,-3.1375,-3.1378,0,0,0,0,0,0,0,0,-3.1079,-3.109,-3.1184,-3.1186,-3.1188,-3.1251,-3.1239,-3.1323,-3.1264,-3.1235,-3.1259,-3.1257,-3.1319,-3.1327,-3.1348,-3.1435,-3.1439,-3.1376,-3.1379,-3.1382,-3.1383,0,0,0,0,0,0,0,-3.1074,-3.1086,-3.1211,-3.1185,-3.1188,-3.1187,-3.1197,-3.1255,-3.1287,-3.1237,-3.1237,-3.1248,-3.132,-3.1343,-3.135,-3.1441,-3.1376,-3.1381,-3.1384,-3.1386,-3.1595,-3.1597,0,0,0,0,0,0,-3.1066,-3.1082,-3.1208,-3.1214,-3.1128,-3.1192,-3.1203,-3.1233,-3.1286,-3.1292,-3.1249,-3.1247,-3.1334,-3.1344,-3.1353,-3.1442,-3.1382,-3.1387,-3.139,-3.1592,-3.1595,-3.1597,0,0,0,0,0,0,-3.1062,-3.1077,-3.1205,-3.1148,-3.1164,-3.1197,-3.1231,-3.1236,-3.1258,-3.1295,-3.1301,-3.1267,-3.1333,-3.1346,-3.1412,-3.1445,-3.1389,-3.1394,-3.159,-3.1593,-3.1596,-3.1619,0,0,0,0,0,0,-3.1057,-3.1076,-3.1102,-3.1149,-3.1167,-3.1262,-3.1233,-3.1239,-3.1268,-3.1266,-3.1313,-3.1319,-3.1333,-3.1404,-3.1418,-3.1451,-3.1398,-3.1587,-3.1591,-3.1595,-3.1616,-3.1623,-3.1629,0,0,0,0,0,-3.1051,-3.1105,-3.1104,-3.1119,-3.1201,-3.1263,-3.1274,-3.1289,-3.127,-3.1298,-3.1323,-3.1317,-3.144,-3.1411,-3.1426,-3.1462,-3.1585,-3.159,-3.1595,-3.1613,-3.1622,-3.1629,0,0,0,0,0,0,-3.106,-3.1111,-3.111,-3.1181,-3.1218,-3.1262,-3.1297,-3.1298,-3.1341,-3.1337,-3.1354,-3.1365,-3.1432,-3.1454,-3.1421,-3.1536,-3.151,-3.1518,-3.1518,-3.1527,-3.1534,-3.1526,-3.1403,0,0,0,0,0,-3.1071,-3.1117,-3.1159,-3.1217,-3.1236,-3.1264,-3.1291,-3.13,-3.1339,-3.1354,-3.1384,-3.1422,-3.147,-3.15,-3.1546,-3.162,-3.1631,-3.1653,-3.166,-3.1665,-3.1671,-3.1714,-3.1725,-3.1614,-3.1614,-3.1614,0,0,-3.1092,-3.1126,-3.1153,-3.122,-3.1249,-3.1297,-3.1277,-3.1327,-3.1363,-3.1362,-3.1427,-3.145,-3.1495,-3.1566,-3.1599,-3.1587,-3.1705,-3.1672,-3.1676,-3.1679,-3.1721,-3.1731,-3.174,-3.1618,-3.1617,-3.1616,0,0,-3.1155,-3.1186,-3.1238,-3.1269,-3.1315,-3.1334,-3.1347,-3.1393,-3.1408,-3.1474,-3.1475,-3.1519,-3.16,-3.1632,-3.1659,-3.174,-3.1737,-3.1754,-3.1789,-3.183,-3.1839,-3.1847,-3.1875,-3.1885,-3.1761,-3.1761,-3.1761,0,-3.1176,-3.1247,-3.1265,-3.1316,-3.1346,-3.135,-3.1403,-3.1433,-3.1492,-3.1512,-3.1499,-3.1602,-3.1632,-3.1712,-3.1732,-3.1754,-3.177,-3.1747,-3.1836,-3.1844,-3.1852,-3.1879,-3.189,-3.1763,-3.1763,-3.1762,-3.1762,0,-3.1271,-3.1321,-3.1358,-3.1415,-3.145,-3.1502,-3.1528,-3.1562,-3.1569,-3.159,-3.1658,-3.1695,-3.1749,-3.1769,-3.1776,-3.1851,-3.1842,-3.1832,-3.1806,-3.1864,-3.189,-3.19,-3.1765,-3.1765,-3.1764,-3.1764,0,0,-3.1338,-3.1408,-3.1421,-3.1448,-3.1501,-3.154,-3.1595,-3.1648,-3.1676,-3.1718,-3.1764,-3.1835,-3.1827,-3.1858,-3.187,-3.1906,-3.1969,-3.1892,-3.1894,-3.1904,-3.2054,-3.206,-3.2071,-3.1969,-3.1971,-3.1972,-3.205,0,-3.1406,-3.1501,-3.152,-3.1603,-3.165,-3.1656,-3.1704,-3.1743,-3.1765,-3.1809,-3.1834,-3.1884,-3.187,-3.1889,-3.1926,-3.1953,-3.1998,-3.1948,-3.2011,-3.2013,-3.1997,-3.2085,-3.2091,-3.2162,-3.206,-3.2062,-3.2063,0,-3.1496,-3.1541,-3.1629,-3.1679,-3.1699,-3.1741,-3.1793,-3.1836,-3.1881,-3.1895,-3.1931,-3.194,-3.1998,-3.1972,-3.2052,-3.2018,-3.2046,-3.2064,-3.2067,-3.2071,-3.204,-3.2091,-3.2185,-3.2195,-3.208,-3.2079,-3.2077,0,-3.1536,-3.1619,-3.1682,-3.1706,-3.1765,-3.1795,-3.1821,-3.1865,-3.1897,-3.1943,-3.1964,-3.2017,-3.2045,-3.2087,-3.211,-3.2088,-3.2189,-3.2164,-3.2203,-3.2202,-3.2221,-3.2219,-3.2319,-3.2242,-3.2242,-3.2242,-3.2242,0,-3.1608,-3.1661,-3.1701,-3.174,-3.1801,-3.1824,-3.1884,-3.191,-3.1949,-3.1994,-3.2004,-3.2047,-3.2075,-3.2122,-3.2142,-3.2206,-3.2219,-3.2232,-3.2236,-3.223,-3.2228,-3.2247,-3.2242,-3.2245,-3.2244,-3.2243,-3.2243,0,-3.166,-3.1689,-3.1759,-3.1811,-3.1826,-3.1868,-3.1913,-3.1952,-3.1977,-3.2034,-3.2049,-3.2087,-3.2143,-3.2171,-3.2241,-3.2254,-3.2326,-3.2328,-3.2311,-3.2312,-3.2348,-3.2344,-3.2462,-3.2479,-3.2392,-3.2393,-3.2394,0,-3.1703,-3.1745,-3.1802,-3.1833,-3.1861,-3.1911,-3.1944,-3.197,-3.2004,-3.2061,-3.2094,-3.2151,-3.2197,-3.2287,-3.2321,-3.2376,-3.2378,-3.2416,-3.2386,-3.2379,-3.2377,-3.2374,-3.2378,-3.242,-3.2421,-3.2421,-3.2422,0,-3.1777,-3.179,-3.1837,-3.1891,-3.1931,-3.1975,-3.2017,-3.2043,-3.2076,-3.2115,-3.2173,-3.2209,-3.2282,-3.2338,-3.2396,-3.2424,-3.2429,-3.2432,-3.2443,-3.2436,-3.2424,-3.2431,-3.2323,-3.2428,-3.2427,-3.2427,-3.2427,-3.2426,-3.1825,-3.1863,-3.191,-3.1963,-3.1999,-3.204,-3.2079,-3.211,-3.2159,-3.2219,-3.2233,-3.2294,-3.2342,-3.242,-3.2451,-3.25,-3.2492,-3.2508,-3.2512,-3.2516,-3.2517,-3.2419,-3.2511,-3.2511,-3.251,-3.251,-3.251,0,-3.1898,-3.193,-3.1979,-3.2039,-3.2082,-3.2085,-3.2134,-3.2169,-3.2223,-3.2267,-3.2314,-3.2382,-3.2438,-3.2479,-3.2536,-3.2568,-3.2572,-3.2582,-3.2579,-3.2586,-3.2521,-3.2505,-3.2578,-3.2578,-3.2578,-3.2578,-3.2578,-3.2578,-3.1941,-3.2005,-3.2025,-3.2108,-3.2139,-3.22,-3.2227,-3.2266,-3.2301,-3.2377,-3.2424,-3.245,-3.2494,-3.2555,-3.2608,-3.2618,-3.2638,-3.2649,-3.2659,-3.2597,-3.259,-3.2583,-3.2568,-3.2653,-3.2653,-3.2719,-3.272,-3.272]},{"header":{"parameterUnit":"m.s-1","parameterCategory":1,"la1":30.2991,"la2":30.254,"lo1":-89.0895,"lo2":-89.0444,"dy":0.0017,"dx":0.0017,"nx":28,"ny":28,"refTime":"2025-04-20T03:00:00:Z","depth":0,"parameterNumber":3,"parameterNumberName":"V-component_of_WINDS"},"data":[0,0,0,0,0,0,0,0,0,0,0,0,0,0,0,0,0,0,0,0,0,0,0,0,0,0,0,0,0,0,0,0,0,0,0,0,0,0,0,0,0,0,0,0,0,0,0,0,0,0,0,0,0,0,0,0,0,0,3.8904,3.8904,0,3.8918,3.8918,3.8918,3.8978,3.898,3.8981,3.8982,3.8995,3.8994,3.8993,0,0,0,0,0,0,0,0,0,0,0,0,0,3.8928,3.8928,3.8904,3.8904,3.8904,3.8918,3.8918,3.8918,3.8978,3.898,3.8981,3.8983,3.8995,3.8994,3.8993,0,0,0,0,0,0,0,0,0,0,0,0,0,3.8927,3.8927,3.8904,3.8936,3.8939,3.8918,3.8918,3.8918,3.8978,3.898,3.8982,3.8984,3.8995,3.8994,3.8992,3.8941,0,0,3.8988,3.8987,0,0,0,0,0,0,0,0,3.8927,3.8926,3.8931,3.8933,3.8937,3.8948,3.8931,3.8926,3.8977,3.8963,3.8982,3.8985,3.8977,3.8978,3.8975,3.8942,3.8942,3.8988,3.8987,3.8986,3.8986,0,0,0,0,0,0,0,3.8927,3.8926,3.8909,3.8931,3.8934,3.8949,3.8951,3.893,3.8958,3.8964,3.8969,3.897,3.8979,3.8977,3.8976,3.8942,3.8988,3.8987,3.8986,3.8985,3.887,3.8868,0,0,0,0,0,0,3.8923,3.8926,3.8909,3.891,3.8937,3.8947,3.8949,3.8942,3.8958,3.8963,3.8968,3.8972,3.8978,3.8978,3.8977,3.892,3.8986,3.8985,3.8984,3.8872,3.887,3.8868,0,0,0,0,0,0,3.8923,3.8921,3.8908,3.8919,3.8919,3.8944,3.8936,3.8942,3.8939,3.8961,3.8966,3.896,3.898,3.8979,3.895,3.8921,3.8984,3.8983,3.8875,3.8872,3.8869,3.8804,0,0,0,0,0,0,3.8924,3.8921,3.8901,3.8918,3.8918,3.8881,3.8934,3.894,3.8937,3.8943,3.8955,3.8959,3.8981,3.8952,3.8949,3.892,3.8982,3.8878,3.8874,3.887,3.8809,3.8799,3.879,0,0,0,0,0,3.8924,3.8881,3.89,3.8898,3.8894,3.8879,3.8879,3.8906,3.8934,3.8915,3.893,3.8959,3.8925,3.8949,3.8946,3.8916,3.888,3.8875,3.887,3.8813,3.8801,3.8791,0,0,0,0,0,0,3.8859,3.8884,3.8905,3.8866,3.887,3.889,3.8866,3.8892,3.8888,3.8893,3.8927,3.8929,3.8896,3.8903,3.8929,3.8869,3.8907,3.8902,3.8865,3.8854,3.8845,3.8844,3.898,0,0,0,0,0,3.884,3.8827,3.8849,3.8813,3.8814,3.884,3.8834,3.8855,3.886,3.8862,3.8875,3.8878,3.8869,3.8862,3.8854,3.881,3.8815,3.8788,3.8779,3.8772,3.8766,3.8746,3.8735,3.8852,3.8852,3.8852,0,0,3.8801,3.8813,3.8802,3.88,3.8806,3.8791,3.884,3.8822,3.8812,3.8859,3.8834,3.8843,3.885,3.8814,3.8799,3.8819,3.8735,3.8765,3.8759,3.8758,3.874,3.8729,3.8719,3.8848,3.8849,3.8849,0,0,3.8722,3.8729,3.8701,3.8706,3.8715,3.8733,3.8726,3.8742,3.875,3.8726,3.8762,3.875,3.8732,3.8736,3.8736,3.8661,3.8689,3.8658,3.861,3.859,3.858,3.8573,3.8548,3.8538,3.8652,3.8652,3.8652,0,3.8671,3.8651,3.8682,3.8663,3.8662,3.8705,3.8678,3.8681,3.8686,3.8684,3.8707,3.8688,3.8695,3.8662,3.8644,3.8642,3.8636,3.8656,3.8579,3.8572,3.8565,3.8541,3.8532,3.8648,3.8649,3.8649,3.865,0,3.859,3.8576,3.8552,3.8558,3.8554,3.853,3.8558,3.855,3.8572,3.8587,3.8563,3.8573,3.857,3.8563,3.8583,3.8534,3.8546,3.8573,3.8613,3.8549,3.8528,3.8519,3.8643,3.8644,3.8646,3.8647,0,0,3.8469,3.8494,3.8485,3.8489,3.8504,3.8493,3.8472,3.847,3.8463,3.8466,3.845,3.8435,3.8461,3.8461,3.8482,3.8464,3.8407,3.8494,3.8495,3.8479,3.8356,3.8336,3.8325,3.8426,3.8424,3.8423,3.8356,0,3.8395,3.8361,3.8389,3.835,3.8338,3.8381,3.8363,3.837,3.8384,3.8376,3.8392,3.8382,3.8416,3.8417,3.8401,3.8417,3.8383,3.8423,3.8412,3.8411,3.8409,3.8313,3.8292,3.8228,3.8347,3.8346,3.8345,0,3.8303,3.8304,3.8264,3.8283,3.828,3.8263,3.8264,3.8256,3.8265,3.8277,3.8278,3.8305,3.8287,3.8326,3.8301,3.8328,3.8325,3.8333,3.8331,3.8331,3.8374,3.8312,3.8208,3.8198,3.8332,3.8333,3.8334,0,3.8221,3.8212,3.8187,3.8189,3.8211,3.8198,3.8207,3.8218,3.8216,3.8217,3.8216,3.8215,3.8214,3.8213,3.8239,3.8265,3.8212,3.8253,3.8222,3.8222,3.8209,3.821,3.8104,3.8206,3.8206,3.8206,3.8206,0,3.8136,3.811,3.8151,3.8136,3.8109,3.8142,3.8115,3.8127,3.8138,3.8126,3.8162,3.8151,3.8186,3.8179,3.8199,3.8177,3.8176,3.8186,3.8192,3.8183,3.8182,3.8182,3.8187,3.8204,3.8204,3.8205,3.8205,0,3.8039,3.8065,3.8042,3.8065,3.807,3.8049,3.8069,3.8057,3.8075,3.806,3.8058,3.8086,3.8079,3.8106,3.8103,3.8117,3.8084,3.8097,3.8081,3.8086,3.8055,3.8058,3.7946,3.7933,3.8042,3.8041,3.804,0,3.7983,3.7965,3.7987,3.7982,3.7989,3.7981,3.798,3.8012,3.8009,3.802,3.8007,3.8003,3.8002,3.799,3.801,3.8009,3.8022,3.7983,3.8022,3.8015,3.8023,3.8025,3.8024,3.7975,3.7974,3.7973,3.7972,0,3.7882,3.7897,3.7894,3.7896,3.7893,3.7896,3.7901,3.7895,3.7931,3.7926,3.7921,3.792,3.7919,3.7915,3.7919,3.7927,3.7956,3.7959,3.7953,3.7944,3.7936,3.7942,3.8061,3.7962,3.7963,3.7963,3.7964,3.7964,3.7805,3.7792,3.7806,3.7802,3.781,3.7814,3.7805,3.7822,3.7818,3.7821,3.784,3.7831,3.7843,3.7851,3.7857,3.7851,3.787,3.7859,3.7857,3.7854,3.7849,3.7937,3.7852,3.7852,3.7852,3.7853,3.7853,0,3.7707,3.7719,3.7715,3.7723,3.772,3.7748,3.7756,3.7752,3.7744,3.7753,3.7752,3.7747,3.7744,3.7765,3.7766,3.7757,3.777,3.7756,3.7757,3.7759,3.7832,3.7839,3.7746,3.7746,3.7746,3.7746,3.7746,3.7746,3.7656,3.7636,3.7652,3.7637,3.7649,3.7641,3.7644,3.7649,3.7657,3.7649,3.7648,3.7662,3.7676,3.7679,3.7678,3.7685,3.7684,3.7665,3.7676,3.7744,3.7754,3.7764,3.777,3.7665,3.7664,3.7605,3.7604,3.7603]}]]